Weather History for Lufkin, TX

Change the Weather History Date:

Tuesday, September 24, 2013

  Actual Average Record
Temperature  
Mean Temperature 80 °F 75 °F  
Max Temperature 93 °F 86 °F 102 °F (1931)
Min Temperature 66 °F 63 °F 46 °F (1990)
Degree Days  
Heating Degree Days 0 0  
Month to date heating degree days 0 0  
Since 1 July heating degree days 0 0  
Cooling Degree Days 15 10  
Month to date cooling degree days 396 320  
Year to date cooling degree days 2563 2343  
Growing Degree Days 32 (Base 50)    
Moisture  
Dew Point 65 °F    
Average Humidity 57    
Maximum Humidity 84    
Minimum Humidity 30    
Precipitation  
Precipitation 0.00 in 0.12 in 4.35 in (1941)
Month to date precipitation 3.68 3.31  
Year to date precipitation 29.58 33.90  
Snow  
Snow 0.00 in - - ()
Month to date snowfall 0.0  
Since 1 July snowfall 0.0  
Since 1 September snowfall 0.0  
Snow Depth 0.00 in    
Sea Level Pressure  
Sea Level Pressure 29.83 in    
Wind  
Wind Speed 4 mph (North)    
Max Wind Speed 15 mph    
Max Gust Speed 21 mph    
Visibility 10 miles    
Events      
T = Trace of Precipitation, MM = Missing Value Source: NWS Daily Summary

Daily Weather History Graph

Daily Weather History Graph

Search for Another Location

Airport:

Trip Planner

Search our weather history database for the weather conditions in past years. The results will help you decide how hot, cold, wet, or windy it might be!

Date:

Astronomy

Sep. 24, 2013 Rise Set
Actual Time 7:08 AM CDT 7:12 PM CDT
Civil Twilight 6:44 AM CDT 7:36 PM CDT
Nautical Twilight 6:16 AM CDT 8:04 PM CDT
Astronomical Twilight 5:47 AM CDT 8:33 PM CDT
Moon 10:50 PM CDT (9/24) 12:04 PM CDT (9/24)
Length of Visible Light 12h 52m
Length of Day
12h 04m
Waning Gibbous, 73% of the Moon is Illuminated
Sep 24
Waning Gibbous
Sep 26
Last Quarter
Oct 4
New
Oct 11
First Quarter
Oct 18
Full

Hourly Weather History & Observations

Time (CDT) Temp. Heat Index Dew Point Humidity Pressure Visibility Wind Dir Wind Speed Gust Speed Precip Events Conditions
12:53 AM 73.9 °F - 66.9 °F 79% 29.82 in 10.0 mi Calm Calm - N/A   Mostly Cloudy
1:53 AM 75.9 °F - 68.0 °F 76% 29.82 in 10.0 mi Calm Calm - N/A   Overcast
2:53 AM 75.0 °F - 68.0 °F 79% 29.82 in 10.0 mi Calm Calm - N/A   Overcast
3:31 AM 75.2 °F - 68.0 °F 78% 29.83 in 10.0 mi Calm Calm - N/A   Overcast
3:53 AM 75.0 °F - 68.0 °F 79% 29.82 in 10.0 mi North 3.5 mph - N/A   Overcast
4:11 AM 75.2 °F - 68.0 °F 78% 29.83 in 10.0 mi Calm Calm - N/A   Overcast
4:42 AM 75.2 °F - 66.2 °F 73% 29.83 in 10.0 mi North 3.5 mph - N/A   Overcast
4:53 AM 75.0 °F - 66.9 °F 76% 29.82 in 10.0 mi Calm Calm - N/A   Overcast
5:06 AM 75.2 °F - 66.2 °F 73% 29.84 in 10.0 mi Calm Calm - N/A   Scattered Clouds
5:53 AM 73.0 °F - 68.0 °F 84% 29.82 in 10.0 mi Calm Calm - N/A   Scattered Clouds
6:53 AM 72.0 °F - 66.9 °F 84% 29.83 in 10.0 mi Calm Calm - N/A   Clear
7:53 AM 73.0 °F - 68.0 °F 84% 29.85 in 10.0 mi Calm Calm - N/A   Clear
8:53 AM 79.0 °F - 69.1 °F 72% 29.86 in 10.0 mi NNW 3.5 mph - N/A   Clear
9:53 AM 82.9 °F 87.0 °F 70.0 °F 65% 29.87 in 10.0 mi North 6.9 mph - N/A   Clear
10:53 AM 86.0 °F 90.7 °F 70.0 °F 59% 29.87 in 10.0 mi NNE 8.1 mph - N/A   Clear
11:53 AM 89.1 °F 92.1 °F 66.9 °F 48% 29.86 in 10.0 mi NE 9.2 mph - N/A   Partly Cloudy
12:53 PM 90.0 °F 91.7 °F 64.9 °F 43% 29.85 in 10.0 mi Variable 6.9 mph - N/A   Clear
1:53 PM 91.0 °F 92.6 °F 64.0 °F 41% 29.83 in 10.0 mi North 9.2 mph - N/A   Clear
2:53 PM 93.0 °F 93.8 °F 62.1 °F 36% 29.81 in 10.0 mi NNW 9.2 mph - N/A   Clear
3:53 PM 93.0 °F 91.7 °F 57.0 °F 30% 29.80 in 10.0 mi North 8.1 mph 17.3 mph N/A   Clear
4:53 PM 91.9 °F 90.0 °F 55.0 °F 29% 29.80 in 10.0 mi North 11.5 mph 19.6 mph N/A   Clear
5:53 PM 91.0 °F 90.0 °F 57.9 °F 33% 29.79 in 10.0 mi North 8.1 mph - N/A   Clear
6:53 PM 88.0 °F 86.7 °F 57.0 °F 35% 29.80 in 10.0 mi Calm Calm - N/A   Clear
7:53 PM 78.1 °F - 62.1 °F 58% 29.81 in 10.0 mi Calm Calm - N/A   Clear
8:53 PM 73.9 °F - 61.0 °F 64% 29.82 in 10.0 mi Calm Calm - N/A   Clear
9:53 PM 71.1 °F - 62.1 °F 73% 29.84 in 10.0 mi Calm Calm - N/A   Clear
10:53 PM 70.0 °F - 61.0 °F 73% 29.84 in 10.0 mi SE 5.8 mph - N/A   Clear
11:53 PM 68.0 °F - 61.0 °F 78% 29.83 in 10.0 mi Calm Calm - N/A   Clear